Location: Praha
(50.0830°N, 14.4670°E)
Time: 16:28:46
(UTC+02:00)

ISS - Pass Details

Date: 14 July 2021
Orbit: 419 x 421 km, 51.6° (Epoch: 01 August)

Event Time Altitude Azimuth Distance (km) Brightness Sun altitude
Rises 23:44:21 0° 252° (WSW) 2,362 0.1 -16.0°
Reaches altitude 10° 23:46:27 10° 252° (WSW) 1,500 -0.9 -16.1°
Maximum altitude 23:49:49 87° 161° (SSE) 425 -3.9 -16.3°
Drops below altitude 10° 23:53:12 10° 75° (ENE) 1,504 -1.0 -16.5°
Sets 23:55:18 0° 75° (ENE) 2,369 0.0 -16.6°
